This demonstration page uses our WeatherBlox Daily Observations layout. Learn more.

Left ArrowRight Arrow

Hourly Observations for May 10, 2020

Temp ( °F °C ) Dew Point ( °F °C ) Humidity (%) Winds ( mph kmh ) Pressure ( in mb ) Visibility ( mi km ) Precip ( " mm )
12:52 am 00:52 Cloudy 43 6.1 34 1.1 71 71 NW 21 33 30.19 1023 10 16 0.00 0.00
1:52 am 01:52 Cloudy 42 5.6 34 1.1 73 73 NW 21 33 30.20 1023 10 16 0.00 0.00
2:52 am 02:52 Cloudy 41 5 33 0.6 73 73 NW 24 39 30.21 1023 10 16 0.00 0.00
3:52 am 03:52 Cloudy 41 5 32 0 70 70 NW 20 31 30.23 1024 10 16 0.00 0.00
4:09 am 04:09 Cloudy 41 5 31 -0.6 67 67 NW 23 37 30.26 1025 10 16 0.00 0.00
4:52 am 04:52 Mostly Cloudy 40 4.4 30 -1.1 68 68 NW 21 33 30.25 1024 10 16 0.00 0.00
5:52 am 05:52 Mostly Clear 38 3.3 30 -1.1 73 73 NW 22 35 30.26 1025 10 16 0.00 0.00
6:52 am 06:52 Sunny 39 3.9 30 -1.1 70 70 WNW 17 28 30.29 1026 10 16 0.00 0.00
7:52 am 07:52 Sunny 41 5 30 -1.1 65 65 NW 17 28 30.30 1026 10 16 0.00 0.00
8:52 am 08:52 Sunny 44 6.7 30 -1.1 58 58 NW 17 28 30.31 1026 10 16 0.00 0.00
9:52 am 09:52 Sunny 48 8.9 30 -1.1 50 50 NW 15 24 30.32 1027 10 16 0.00 0.00
10:52 am 10:52 Sunny 51 10.6 25 -3.9 36 36 NW 25 41 30.31 1026 10 16 0.00 0.00
11:52 am 11:52 Mostly Sunny 53 11.7 25 -3.9 34 34 NNW 23 37 30.32 1027 10 16 0.00 0.00
12:52 pm 12:52 Mostly Sunny 53 11.7 25 -3.9 34 34 NNW 18 30 30.32 1027 10 16 0.00 0.00
1:52 pm 13:52 Partly Cloudy 55 12.8 25 -3.9 31 31 NNW 24 39 30.31 1027 10 16 0.00 0.00
2:52 pm 14:52 Partly Cloudy 56 13.3 25 -3.9 30 30 NW 21 33 30.30 1026 10 16 0.00 0.00
3:52 pm 15:52 Partly Cloudy 57 13.9 25 -3.9 29 29 NNW 21 33 30.29 1026 10 16 0.00 0.00
4:52 pm 16:52 Partly Cloudy 56 13.3 24 -4.4 29 29 NNW 22 35 30.28 1026 10 16 0.00 0.00
5:52 pm 17:52 Mostly Cloudy 57 13.9 24 -4.4 28 28 NW 22 35 30.29 1026 10 16 0.00 0.00
6:52 pm 18:52 Partly Cloudy 54 12.2 23 -5 30 30 NNW 17 28 30.29 1026 10 16 0.00 0.00
7:52 pm 19:52 Mostly Sunny 52 11.1 23 -5 32 32 NNW 15 24 30.30 1026 10 16 0.00 0.00
8:52 pm 20:52 Mostly Clear 47 8.3 25 -3.9 42 42 NNW 9 15 30.32 1027 10 16 0.00 0.00
9:52 pm 21:52 Mostly Clear 45 7.2 25 -3.9 46 46 NNW 10 17 30.34 1027 10 16 0.00 0.00
10:52 pm 22:52 Mostly Clear 41 5 27 -2.8 57 57 NNE 7 11 30.36 1028 10 16 0.00 0.00
11:52 pm 23:52 Mostly Clear 39 3.9 27 -2.8 62 62 N 6 9 30.37 1028 10 16 0.00 0.00

Powered by AerisWeather